Location: Chèvreville
(49.1099°N, 2.8495°E)
Time: 07:20:01
(UTC+00:00)

BEESAT - Visible Passes

Search period start: 03 December 2023 00:00
Search period end: 13 December 2023 00:00
Orbit: 696 x 702 km, 98.5° (Epoch: 02 December)

Date Brightness Start Highest point End Pass type
(mag) Time Alt. Az. Time Alt. Az. Time Alt. Az.
03 Dec ? 06:40:07 10° ENE 06:41:50 12° NE 06:43:32 10° NNE visible
08 Dec ? 06:52:20 10° E 06:54:57 15° NE 06:57:32 10° NNE visible
10 Dec ? 06:39:24 10° ENE 06:40:55 11° NE 06:42:25 10° NNE visible
